Weather History for Cecil Field, FL

Change the Weather History Date:

Tuesday, September 11, 2012

  Actual Average (KJAX) Record (KJAX)
Temperature  
Mean Temperature 74 °F 79 °F  
Max Temperature 84 °F 88 °F 96 °F (1954)
Min Temperature 64 °F 71 °F 62 °F (1998)
Degree Days  
Heating Degree Days 0 0  
Month to date heating degree days 0  
Since 1 July heating degree days 0  
Cooling Degree Days 9 14  
Month to date cooling degree days 164  
Year to date cooling degree days 2154  
Growing Degree Days 24 (Base 50)    
Moisture  
Dew Point 65 °F    
Average Humidity 87    
Maximum Humidity 100    
Minimum Humidity 48    
Precipitation  
Precipitation 0.00 in 0.27 in 4.12 in (1960)
Month to date precipitation 3.11  
Year to date precipitation 38.47  
Snow  
Snow 0.00 in 0.00 in 0.00 in (2002)
Month to date snowfall 0.0  
Since 1 July snowfall 0.0  
Since 1 September snowfall 0.0  
Snow Depth -    
Sea Level Pressure  
Sea Level Pressure 30.13 in    
Wind  
Wind Speed 2 mph (ENE)    
Max Wind Speed 16 mph    
Max Gust Speed -    
Visibility 10 miles    
Events      
T = Trace of Precipitation, MM = Missing Value Source: NWS Daily Summary

Daily Weather History Graph

Daily Weather History Graph

Search for Another Location

Airport:

Trip Planner

Search our weather history database for the weather conditions in past years. The results will help you decide how hot, cold, wet, or windy it might be!

Date:

Astronomy

Sep. 11, 2012 Rise Set
Actual Time 7:10 AM EDT 7:37 PM EDT
Civil Twilight 6:45 AM EDT 8:01 PM EDT
Nautical Twilight 6:17 AM EDT 8:29 PM EDT
Astronomical Twilight 5:49 AM EDT 8:58 PM EDT
Moon 2:41 AM EDT (9/11) 4:32 PM EDT (9/11)
Length of Visible Light 13h 15m
Length of Day
12h 27m
Waning Crescent, 21% of the Moon is Illuminated
Sep 11
Waning Crescent
Sep 15
New
Sep 22
First Quarter
Sep 29
Full
Oct 8
Last Quarter

Hourly Weather History & Observations

Time (EDT) Temp. Heat Index Dew Point Humidity Pressure Visibility Wind Dir Wind Speed Gust Speed Precip Events Conditions
12:15 AM 66.2 °F - 66.2 °F 100% 30.09 in 10.0 mi Calm Calm - N/A   Clear
12:35 AM 66.2 °F - 66.2 °F 100% 30.09 in 10.0 mi Calm Calm - N/A   Clear
12:55 AM 66.2 °F - 66.2 °F 100% 30.09 in 10.0 mi Calm Calm - N/A   Clear
1:15 AM 66.2 °F - 66.2 °F 100% 30.09 in 10.0 mi Calm Calm - N/A   Clear
1:35 AM 66.2 °F - 66.2 °F 100% 30.09 in 10.0 mi Calm Calm - N/A   Clear
1:55 AM 64.4 °F - 64.4 °F 100% 30.08 in 10.0 mi Calm Calm - N/A   Clear
2:15 AM 64.4 °F - 64.4 °F 100% 30.09 in 10.0 mi Calm Calm - N/A   Clear
2:35 AM 64.4 °F - 64.4 °F 100% 30.08 in 10.0 mi Calm Calm - N/A   Clear
2:55 AM 64.4 °F - 64.4 °F 100% 30.08 in 8.0 mi Calm Calm - N/A   Clear
3:15 AM 64.4 °F - 64.4 °F 100% 30.08 in 9.0 mi Calm Calm - N/A   Clear
3:35 AM 64.4 °F - 64.4 °F 100% 30.08 in 9.0 mi Calm Calm - N/A   Clear
3:55 AM 64.4 °F - 64.4 °F 100% 30.08 in 8.0 mi Calm Calm - N/A   Clear
4:15 AM 64.4 °F - 64.4 °F 100% 30.08 in 9.0 mi Calm Calm - N/A   Clear
4:35 AM 64.4 °F - 64.4 °F 100% 30.08 in 9.0 mi Calm Calm - N/A   Clear
4:55 AM 64.4 °F - 64.4 °F 100% 30.08 in 9.0 mi Calm Calm - N/A   Clear
5:15 AM 64.4 °F - 64.4 °F 100% 30.08 in 10.0 mi Calm Calm - N/A   Clear
5:35 AM 64.4 °F - 64.4 °F 100% 30.09 in 10.0 mi Calm Calm - N/A   Clear
5:55 AM 64.4 °F - 64.4 °F 100% 30.09 in 9.0 mi Calm Calm - N/A   Clear
6:15 AM 64.4 °F - 64.4 °F 100% 30.10 in 8.0 mi Calm Calm - N/A   Clear
6:50 AM 64.4 °F - 64.4 °F 100% 30.11 in 7.0 mi Calm Calm - N/A   Partly Cloudy
7:50 AM 64.4 °F - 64.4 °F 100% 30.14 in 10.0 mi Calm Calm - N/A   Scattered Clouds
8:50 AM 71.6 °F - 66.2 °F 83% 30.15 in 10.0 mi NNE 5.8 mph - N/A   Clear
10:50 AM 82.4 °F 83.9 °F 64.4 °F 54% 30.18 in 10.0 mi ENE 13.8 mph - N/A   Partly Cloudy
12:50 PM 84.2 °F 85.0 °F 62.6 °F 48% 30.18 in 10.0 mi East 11.5 mph - N/A   Partly Cloudy
1:50 PM 84.2 °F 85.0 °F 62.6 °F 48% 30.18 in 10.0 mi ENE 13.8 mph - N/A   Partly Cloudy
2:50 PM 84.2 °F 85.0 °F 62.6 °F 48% 30.16 in 10.0 mi East 16.1 mph - N/A   Partly Cloudy
3:50 PM 82.4 °F 83.9 °F 64.4 °F 54% 30.14 in 10.0 mi East 11.5 mph - N/A   Scattered Clouds
4:50 PM 82.4 °F 83.9 °F 64.4 °F 54% 30.14 in 10.0 mi East 16.1 mph - N/A   Scattered Clouds
5:50 PM 82.4 °F 84.6 °F 66.2 °F 58% 30.15 in 10.0 mi ENE 11.5 mph - N/A   Scattered Clouds
7:50 PM 77.0 °F - 66.2 °F 69% 30.15 in 10.0 mi ENE 11.5 mph - N/A   Clear
8:55 PM 75.2 °F - 66.2 °F 73% 30.17 in 10.0 mi ENE 3.5 mph - N/A   Clear
9:15 PM 75.2 °F - 66.2 °F 73% 30.17 in 10.0 mi Calm Calm - N/A   Clear
9:35 PM 75.2 °F - 66.2 °F 73% 30.18 in 10.0 mi Calm Calm - N/A   Clear
9:55 PM 73.4 °F - 68.0 °F 83% 30.19 in 10.0 mi Calm Calm - N/A   Clear
10:15 PM 71.6 °F - 68.0 °F 88% 30.19 in 10.0 mi Calm Calm - N/A   Clear
10:35 PM 69.8 °F - 68.0 °F 94% 30.19 in 10.0 mi Calm Calm - N/A   Clear
10:55 PM 68.0 °F - 68.0 °F 100% 30.19 in 10.0 mi Calm Calm - N/A   Clear
11:15 PM 68.0 °F - 66.2 °F 94% 30.19 in 10.0 mi Calm Calm - N/A   Partly Cloudy
11:35 PM 68.0 °F - 66.2 °F 94% 30.20 in 10.0 mi Calm Calm - N/A   Clear
11:55 PM 68.0 °F - 68.0 °F 100% 30.20 in 10.0 mi Calm Calm - N/A   Scattered Clouds